DAL976 KSJC-KLAX

Flight info

Callsign DAL976
Flight time 0h 53m
Altitude 33000
Route SPTNS1 VLREE EBAYE BURGL IRNMN2
Aircraft E145/M-SABDFGRW/S

Departure

Time 2026-05-07 16:22
Airport Norman Y. Mineta San Jose International Airport (KSJC)

Arrival

Time 2026-05-07 17:15
Airport Los Angeles International Airport (KLAX)
Time Latitude Longitude Altitude Speed Heading
2026-05-07 16:05 37.36373 -121.93654 48 ft 0 kts 227°
2026-05-07 16:14 37.36377 -121.93649 48 ft 2 kts 239°
2026-05-07 16:15 37.36381 -121.93631 48 ft 2 kts 271°
2026-05-07 16:15 37.36377 -121.93613 48 ft 2 kts 301°
2026-05-07 16:15 37.36371 -121.93602 48 ft 0 kts 320°
2026-05-07 16:15 37.36369 -121.93600 48 ft 0 kts 320°
2026-05-07 16:17 37.36370 -121.93601 48 ft 1 kts 320°
2026-05-07 16:17 37.36385 -121.93617 48 ft 4 kts 317°
2026-05-07 16:17 37.36414 -121.93652 47 ft 7 kts 317°
2026-05-07 16:17 37.36463 -121.93658 47 ft 9 kts 70°
2026-05-07 16:18 37.36424 -121.93584 47 ft 11 kts 137°
2026-05-07 16:18 37.36359 -121.93511 48 ft 13 kts 139°
2026-05-07 16:18 37.36286 -121.93430 49 ft 14 kts 138°
2026-05-07 16:18 37.36204 -121.93342 50 ft 16 kts 139°
2026-05-07 16:19 37.36114 -121.93243 51 ft 17 kts 139°
2026-05-07 16:19 37.36015 -121.93136 53 ft 19 kts 139°
2026-05-07 16:19 37.35912 -121.93020 54 ft 20 kts 136°
2026-05-07 16:19 37.35734 -121.92823 56 ft 22 kts 139°
2026-05-07 16:20 37.35634 -121.92713 57 ft 11 kts 138°
2026-05-07 16:20 37.35636 -121.92645 57 ft 0 kts 49°
2026-05-07 16:20 37.35652 -121.92622 57 ft 6 kts 49°
2026-05-07 16:20 37.35690 -121.92567 57 ft 9 kts 48°
2026-05-07 16:21 37.35753 -121.92487 57 ft 15 kts 28°
2026-05-07 16:21 37.35864 -121.92543 56 ft 28 kts 319°
2026-05-07 16:21 37.36129 -121.92832 53 ft 76 kts 319°
2026-05-07 16:21 37.36712 -121.93474 61 ft 139 kts 319°
2026-05-07 16:22 37.37495 -121.94356 480 ft 157 kts 317°
2026-05-07 16:22 37.38313 -121.95325 1164 ft 172 kts 322°
2026-05-07 16:22 37.39280 -121.96320 1830 ft 191 kts 321°
2026-05-07 16:22 37.40375 -121.97366 2513 ft 210 kts 335°
2026-05-07 16:23 37.41887 -121.97652 3004 ft 238 kts 10°
2026-05-07 16:23 37.43362 -121.96661 3824 ft 250 kts 46°
2026-05-07 16:23 37.44156 -121.94714 4834 ft 258 kts 79°
2026-05-07 16:23 37.43977 -121.92503 5830 ft 264 kts 112°
2026-05-07 16:24 37.42865 -121.90697 6834 ft 268 kts 145°
2026-05-07 16:24 37.41182 -121.89742 7849 ft 269 kts 159°
2026-05-07 16:24 37.39634 -121.88411 8783 ft 275 kts 135°
2026-05-07 16:24 37.38331 -121.86657 9715 ft 280 kts 132°
2026-05-07 16:25 37.37033 -121.84820 10572 ft 286 kts 131°
2026-05-07 16:25 37.35700 -121.82909 11182 ft 302 kts 131°
2026-05-07 16:25 37.34285 -121.80875 11752 ft 317 kts 131°
2026-05-07 16:25 37.32812 -121.78781 12383 ft 328 kts 133°
2026-05-07 16:26 37.31119 -121.76823 13139 ft 333 kts 137°
2026-05-07 16:26 37.29393 -121.74860 13935 ft 337 kts 137°
2026-05-07 16:26 37.27650 -121.72882 14686 ft 341 kts 137°
2026-05-07 16:26 37.26475 -121.71550 15152 ft 344 kts 137°
2026-05-07 16:27 37.24092 -121.68849 16092 ft 350 kts 136°
2026-05-07 16:27 37.22276 -121.66792 16793 ft 353 kts 136°
2026-05-07 16:27 37.20454 -121.64730 17406 ft 356 kts 136°
2026-05-07 16:27 37.18617 -121.62651 18044 ft 359 kts 136°
2026-05-07 16:28 37.16758 -121.60551 18780 ft 358 kts 136°
2026-05-07 16:28 37.14914 -121.58467 19474 ft 357 kts 136°
2026-05-07 16:28 37.13074 -121.56390 20172 ft 356 kts 136°
2026-05-07 16:28 37.11226 -121.54306 20852 ft 356 kts 136°
2026-05-07 16:29 37.09396 -121.52243 21518 ft 355 kts 136°
2026-05-07 16:29 37.07568 -121.50184 22185 ft 353 kts 136°
2026-05-07 16:29 37.05740 -121.48157 22807 ft 353 kts 137°
2026-05-07 16:29 37.03882 -121.46180 23412 ft 352 kts 137°
2026-05-07 16:30 37.02024 -121.44198 24035 ft 351 kts 137°
2026-05-07 16:30 37.00181 -121.42231 24635 ft 350 kts 137°
2026-05-07 16:30 36.98343 -121.40271 25223 ft 348 kts 137°
2026-05-07 16:30 36.96502 -121.38308 25818 ft 347 kts 137°
2026-05-07 16:31 36.94656 -121.36342 26384 ft 345 kts 137°
2026-05-07 16:31 36.92836 -121.34404 26944 ft 344 kts 138°
2026-05-07 16:31 36.91024 -121.32476 27463 ft 343 kts 138°
2026-05-07 16:31 36.89178 -121.30513 28006 ft 341 kts 138°
2026-05-07 16:32 36.87358 -121.28579 28530 ft 339 kts 138°
2026-05-07 16:32 36.85538 -121.26646 29012 ft 339 kts 138°
2026-05-07 16:32 36.83720 -121.24718 29480 ft 338 kts 138°
2026-05-07 16:32 36.81930 -121.22819 29918 ft 337 kts 138°
2026-05-07 16:33 36.80147 -121.20929 30313 ft 338 kts 138°
2026-05-07 16:33 36.78352 -121.19028 30703 ft 338 kts 137°
2026-05-07 16:33 36.76551 -121.17123 31085 ft 338 kts 137°
2026-05-07 16:33 36.74737 -121.15203 31479 ft 338 kts 137°
2026-05-07 16:34 36.72935 -121.13298 31855 ft 338 kts 137°
2026-05-07 16:34 36.71114 -121.11373 32192 ft 339 kts 137°
2026-05-07 16:34 36.69275 -121.09432 32527 ft 339 kts 137°
2026-05-07 16:34 36.67435 -121.07491 32853 ft 340 kts 137°
2026-05-07 16:35 36.65601 -121.05557 33134 ft 342 kts 137°
2026-05-07 16:35 36.61810 -121.01562 33161 ft 362 kts 137°
2026-05-07 16:35 36.59835 -120.99515 33166 ft 373 kts 139°
2026-05-07 16:36 36.57805 -120.97451 33159 ft 383 kts 139°
2026-05-07 16:36 36.53550 -120.93121 33145 ft 401 kts 138°
2026-05-07 16:37 36.49080 -120.88579 33142 ft 418 kts 139°
2026-05-07 16:37 36.44386 -120.83815 33130 ft 434 kts 139°
2026-05-07 16:38 36.39601 -120.78968 33128 ft 447 kts 139°
2026-05-07 16:38 36.34671 -120.73982 33122 ft 450 kts 139°
2026-05-07 16:39 36.29706 -120.68968 33118 ft 449 kts 139°
2026-05-07 16:39 36.24755 -120.63978 33115 ft 447 kts 139°
2026-05-07 16:40 36.19889 -120.59080 33115 ft 450 kts 139°
2026-05-07 16:40 36.14934 -120.54102 33112 ft 454 kts 139°
2026-05-07 16:41 36.09971 -120.49124 33121 ft 456 kts 139°
2026-05-07 16:41 36.05013 -120.44160 33126 ft 459 kts 139°
2026-05-07 16:42 35.99952 -120.39101 33129 ft 460 kts 139°
2026-05-07 16:42 35.94928 -120.34087 33112 ft 460 kts 139°
2026-05-07 16:43 35.89973 -120.29150 33112 ft 460 kts 139°
2026-05-07 16:43 35.84699 -120.24407 33098 ft 461 kts 147°
2026-05-07 16:44 35.79223 -120.20285 33100 ft 460 kts 147°
2026-05-07 16:44 35.73748 -120.16158 33095 ft 460 kts 147°
2026-05-07 16:45 35.68291 -120.12051 33097 ft 460 kts 147°
2026-05-07 16:45 35.62719 -120.07858 33097 ft 459 kts 146°
2026-05-07 16:46 35.57222 -120.03702 33098 ft 459 kts 146°
2026-05-07 16:46 35.51749 -119.99580 33112 ft 459 kts 147°
2026-05-07 16:47 35.46315 -119.95494 33111 ft 459 kts 147°
2026-05-07 16:47 35.40937 -119.91456 33116 ft 459 kts 147°
2026-05-07 16:48 35.35441 -119.87337 33119 ft 460 kts 146°
2026-05-07 16:48 35.29860 -119.83160 33126 ft 462 kts 146°
2026-05-07 16:49 35.24653 -119.78476 33138 ft 461 kts 140°
2026-05-07 16:49 35.19530 -119.73682 33139 ft 461 kts 140°
2026-05-07 16:50 35.14415 -119.68908 33135 ft 461 kts 140°
2026-05-07 16:50 35.11863 -119.66531 32864 ft 458 kts 140°
2026-05-07 16:50 35.09363 -119.64202 32354 ft 451 kts 140°
2026-05-07 16:50 35.06839 -119.61853 31841 ft 444 kts 140°
2026-05-07 16:51 35.04383 -119.59570 31337 ft 439 kts 140°
2026-05-07 16:51 35.01973 -119.57330 30832 ft 433 kts 140°
2026-05-07 16:51 34.99580 -119.55108 30332 ft 428 kts 140°
2026-05-07 16:51 34.97207 -119.52907 29832 ft 423 kts 140°
2026-05-07 16:52 34.94877 -119.50746 29312 ft 419 kts 140°
2026-05-07 16:52 34.92547 -119.48588 28785 ft 415 kts 140°
2026-05-07 16:52 34.90201 -119.46446 28256 ft 416 kts 141°
2026-05-07 16:52 34.87849 -119.44344 27735 ft 420 kts 141°
2026-05-07 16:53 34.85484 -119.42226 27213 ft 423 kts 141°
2026-05-07 16:53 34.83141 -119.40131 26697 ft 424 kts 141°
2026-05-07 16:53 34.80743 -119.37987 26172 ft 422 kts 141°
2026-05-07 16:53 34.78384 -119.35879 25649 ft 420 kts 141°
2026-05-07 16:54 34.76019 -119.33768 25128 ft 420 kts 141°
2026-05-07 16:54 34.73646 -119.31669 24605 ft 418 kts 142°
2026-05-07 16:54 34.71286 -119.29607 24087 ft 417 kts 142°
2026-05-07 16:54 34.68924 -119.27544 23566 ft 415 kts 142°
2026-05-07 16:55 34.66583 -119.25499 23049 ft 412 kts 142°
2026-05-07 16:55 34.64253 -119.23473 22545 ft 409 kts 142°
2026-05-07 16:55 34.61948 -119.21484 22043 ft 405 kts 142°
2026-05-07 16:55 34.59657 -119.19509 21546 ft 402 kts 142°
2026-05-07 16:56 34.57414 -119.17576 21057 ft 399 kts 142°
2026-05-07 16:56 34.55174 -119.15617 20566 ft 396 kts 141°
2026-05-07 16:56 34.50691 -119.11644 19601 ft 406 kts 141°
2026-05-07 16:57 34.48392 -119.09611 19158 ft 412 kts 141°
2026-05-07 16:57 34.46051 -119.07541 18725 ft 414 kts 141°
2026-05-07 16:57 34.43727 -119.05496 18232 ft 414 kts 142°
2026-05-07 16:57 34.41381 -119.03463 17748 ft 411 kts 142°
2026-05-07 16:58 34.39063 -119.01455 17273 ft 408 kts 142°
2026-05-07 16:58 34.36768 -118.99467 16790 ft 405 kts 142°
2026-05-07 16:58 34.34505 -118.97508 16306 ft 402 kts 141°
2026-05-07 16:58 34.32270 -118.95489 15819 ft 398 kts 140°
2026-05-07 16:59 34.30056 -118.93480 15332 ft 396 kts 140°
2026-05-07 16:59 34.27885 -118.91512 14851 ft 393 kts 140°
2026-05-07 16:59 34.25715 -118.89545 14357 ft 381 kts 140°
2026-05-07 16:59 34.23629 -118.87630 13855 ft 365 kts 140°
2026-05-07 17:00 34.21648 -118.85806 13367 ft 351 kts 140°
2026-05-07 17:00 34.19704 -118.84019 12866 ft 345 kts 140°
2026-05-07 17:00 34.17818 -118.82288 12387 ft 343 kts 140°
2026-05-07 17:00 34.15916 -118.80499 11913 ft 348 kts 136°
2026-05-07 17:01 34.14134 -118.78507 11434 ft 352 kts 135°
2026-05-07 17:01 34.12297 -118.76505 11031 ft 356 kts 135°
2026-05-07 17:01 34.10469 -118.74517 10675 ft 353 kts 136°
2026-05-07 17:01 34.08643 -118.72533 10350 ft 343 kts 136°
2026-05-07 17:02 34.06926 -118.70670 10066 ft 324 kts 136°
2026-05-07 17:02 34.05285 -118.68888 9983 ft 314 kts 136°
2026-05-07 17:02 34.03715 -118.67047 9969 ft 309 kts 125°
2026-05-07 17:02 34.02837 -118.64729 9977 ft 305 kts 100°
2026-05-07 17:03 34.02581 -118.62264 9735 ft 286 kts 95°
2026-05-07 17:03 34.02361 -118.59960 9532 ft 275 kts 95°
2026-05-07 17:03 34.02148 -118.57697 9285 ft 268 kts 95°
2026-05-07 17:03 34.01939 -118.55486 8985 ft 263 kts 95°
2026-05-07 17:04 34.01734 -118.53309 8566 ft 264 kts 95°
2026-05-07 17:04 34.01524 -118.51080 8095 ft 265 kts 95°
2026-05-07 17:04 34.01316 -118.48866 7603 ft 266 kts 95°
2026-05-07 17:04 34.01111 -118.46699 7084 ft 254 kts 95°
2026-05-07 17:05 34.01208 -118.44633 6881 ft 244 kts 78°
2026-05-07 17:05 34.01555 -118.42619 6630 ft 244 kts 78°
2026-05-07 17:05 34.01894 -118.40638 6377 ft 241 kts 78°
2026-05-07 17:05 34.02233 -118.38661 6097 ft 239 kts 78°
2026-05-07 17:06 34.02566 -118.36729 5792 ft 233 kts 77°
2026-05-07 17:06 34.02834 -118.34802 5381 ft 228 kts 83°
2026-05-07 17:06 34.03020 -118.32901 4954 ft 225 kts 82°
2026-05-07 17:06 34.03208 -118.31034 4530 ft 223 kts 82°
2026-05-07 17:07 34.03394 -118.29202 4110 ft 221 kts 82°
2026-05-07 17:07 34.03578 -118.27372 3681 ft 220 kts 82°
2026-05-07 17:07 34.03755 -118.25557 3283 ft 215 kts 82°
2026-05-07 17:07 34.03923 -118.23795 2918 ft 212 kts 82°
2026-05-07 17:08 34.04100 -118.22045 2594 ft 205 kts 82°
2026-05-07 17:08 34.04274 -118.20375 2561 ft 195 kts 82°
2026-05-07 17:08 34.04440 -118.18756 2561 ft 192 kts 82°
2026-05-07 17:08 34.04611 -118.17160 2563 ft 191 kts 82°
2026-05-07 17:09 34.04773 -118.15573 2565 ft 190 kts 84°
2026-05-07 17:09 34.04442 -118.14071 2549 ft 190 kts 125°
2026-05-07 17:09 34.03348 -118.13240 2555 ft 188 kts 169°
2026-05-07 17:09 34.02104 -118.13420 2557 ft 177 kts 202°
2026-05-07 17:10 34.01173 -118.14340 2571 ft 173 kts 231°
2026-05-07 17:10 34.00377 -118.15488 2568 ft 177 kts 231°
2026-05-07 17:10 33.99579 -118.16626 2567 ft 179 kts 231°
2026-05-07 17:10 33.98777 -118.17767 2567 ft 180 kts 231°
2026-05-07 17:11 33.97965 -118.18934 2565 ft 181 kts 233°
2026-05-07 17:11 33.97470 -118.20313 2567 ft 178 kts 256°
2026-05-07 17:11 33.97191 -118.21768 2563 ft 176 kts 260°
2026-05-07 17:11 33.96987 -118.23210 2564 ft 174 kts 263°
2026-05-07 17:12 33.96817 -118.24652 2564 ft 174 kts 263°
2026-05-07 17:12 33.96659 -118.26119 2394 ft 177 kts 264°
2026-05-07 17:12 33.96510 -118.27556 2185 ft 174 kts 264°
2026-05-07 17:12 33.96360 -118.29019 1957 ft 175 kts 264°
2026-05-07 17:13 33.96211 -118.30467 1722 ft 172 kts 264°
2026-05-07 17:13 33.96068 -118.31870 1494 ft 167 kts 264°
2026-05-07 17:13 33.95927 -118.33246 1270 ft 161 kts 264°
2026-05-07 17:13 33.95793 -118.34551 1058 ft 153 kts 263°
2026-05-07 17:14 33.95665 -118.35793 857 ft 142 kts 263°
2026-05-07 17:14 33.95546 -118.36946 685 ft 138 kts 263°
2026-05-07 17:14 33.95422 -118.38079 513 ft 134 kts 263°
2026-05-07 17:14 33.95310 -118.39183 307 ft 132 kts 263°
2026-05-07 17:15 33.95198 -118.40279 152 ft 128 kts 262°
2026-05-07 17:15 33.95097 -118.41235 123 ft 98 kts 266°
2026-05-07 17:15 33.95043 -118.41819 120 ft 44 kts 264°
2026-05-07 17:15 33.95008 -118.42058 119 ft 23 kts 249°
2026-05-07 17:16 33.94918 -118.42228 117 ft 25 kts 227°
2026-05-07 17:16 33.94791 -118.42282 116 ft 19 kts 173°
2026-05-07 17:16 33.94671 -118.42265 115 ft 15 kts 174°
2026-05-07 17:16 33.94606 -118.42226 115 ft 11 kts 104°
2026-05-07 17:17 33.94613 -118.42125 116 ft 12 kts 82°
2026-05-07 17:17 33.94623 -118.42013 117 ft 14 kts 84°
2026-05-07 17:17 33.94633 -118.41885 118 ft 16 kts 86°
2026-05-07 17:17 33.94647 -118.41742 119 ft 18 kts 83°
2026-05-07 17:18 33.94663 -118.41582 120 ft 20 kts 83°
2026-05-07 17:18 33.94682 -118.41409 121 ft 21 kts 83°
2026-05-07 17:18 33.94707 -118.41220 122 ft 20 kts 73°
2026-05-07 17:18 33.94736 -118.41065 122 ft 18 kts 84°
2026-05-07 17:19 33.94753 -118.40902 122 ft 20 kts 82°
2026-05-07 17:19 33.94772 -118.40716 122 ft 23 kts 83°
2026-05-07 17:19 33.94793 -118.40513 121 ft 25 kts 83°
2026-05-07 17:19 33.94813 -118.40323 119 ft 9 kts 85°
2026-05-07 17:20 33.94763 -118.40268 119 ft 12 kts 175°
2026-05-07 17:20 33.94682 -118.40268 119 ft 4 kts 198°
2026-05-07 17:20 33.94666 -118.40301 119 ft 5 kts 271°
2026-05-07 17:20 33.94664 -118.40338 120 ft 0 kts 262°